Orbital Elements at Epoch 2459200.5 (2020-Dec-17.0) TDB
Reference: JPL 26 (heliocentric ecliptic J2000)
Element | Value | Uncertainty (1-sigma) | Units |
e | .1157267219967395 | 2.8918e-08 | |
a | 3.206051857056502 | 1.8849e-08 | au |
q | 2.835025985087793 | 8.8856e-08 | au |
i | .6264460018915048 | 3.8116e-06 | deg |
node | 154.6923777679197 | 0.00028651 | deg |
peri | 87.45326584072967 | 0.00028706 | deg |
M | 87.05555885459771 | 1.6677e-05 | deg |
tp | 2458693.452964471323 (2019-Jul-28.95296447) | 9.7363e-05 | TDB |
period | 2096.786640531493 5.74 | 1.8491e-05 5.063e-08 | d yr |
n | .1716912884892987 | 1.5141e-09 | deg/d |
Q | 3.57707772902521 | 2.1031e-08 | au |
|
| | Orbit Determination Parameters
Additional Information
|